Location: Brad
(46.1333°N, 22.7833°E)
Time: 05:24:10
(UTC+00:00)

Cosmos 2360 Rocket - Pass Details

Date: 03 February 2023
Orbit: 832 x 846 km, 71.0° (Epoch: 29 March)

Event Time Altitude Azimuth Distance (km) Brightness Sun altitude
Rises 18:03:12 0° 225° (SW) 3,376 5.9 -25.6°
Reaches altitude 10° 18:05:44 10° 232° (SW) 2,448 5.2 -26.1°
Maximum altitude 18:11:05 44° 304° (NW) 1,152 3.2 -27.0°
Enters shadow 18:15:03 18° 9° (N) 1,976 4.0 -27.7°
